SCP
0 -0 0 0 0 0 0 0 0 0 0 0 0 0 0 0 0 0 0 0 0 0 0 0 0 0 0 0 0 0 0 0 0 0 0 0 0 0 0 0 0 0 0 0
-0 0 0 0 0 0 0 0 0 0 0 0 0 0 0 0 0 0 0 0 0 0 0 0 0 0 0 0 0 0 0 0 0 0 0 0 0 0 0 0 0 0 0 0
-0 0 0 0 0 0 0 0 0 0 0 0 0 0 0 0 0 0 0 0 0 0 0 0 0 0 0 0 0 0 0 0 0 0 0 0 0 0 0 0 0 -0 0 0
0 0 0 0 0 0 0 0 0 0 0 0 0 0 0 0 0 0 0 0 0 0 0 0 0 0 0 0 0 0 0 0 0 0 0 0 0 0 0 -0 0 -0 -0 0
0 0 0 0 0 0 0 0 0 0 0 0 0 0 0 0 0 0 0 0 0 0 0 0 0 0 0 0 0 0 0 0 0 0 0 0 0 0 0 -0 -0 -0 -0 0
0 0 0 0 0 0 0 0 0 0 0 0 0 0 0 0 0 0 0 0 0 0 0 0 0 0 0 0 0 0 0 0 0 0 0 0 0 0 0 0 0 0 0 0
0 0 0 0 0 0 0 0 0 0 0 0 0 0 0 0 0 0 0 0 0 0 0 0 0 0 0 0 0 0 0 0 0 0 0 0 0 0 0 0 0 0 -0 -0
0 0 0 0 0 0 0 0 0 0 0 0 0 0 0 0 0 0 0 0 0 0 0 0 0 0 0 0 0 0 0 0 0 0 0 0 0 0 0 0 0 -0 0 -0
0 0 0 0 0 0 0 0 0 0 0 0 0 0 0 0 0 0 0 0 0 0 0 0 0 0 0 0 0 0 0 0 0 0 0 0 0 0 0 0 0 0 0 0
0 0 0 0 0 0 0 0 0 0 0 0 0 0 0 0 0 0 0 0 0 0 0 0 0 0 0 0 0 0 0 0 0 0 0 0 0 0 0 0 0 0 0 -0
0 0 0 0 0 0 0 0 0 0 0 0 0 0 0 0 0 0 0 0 0 0 0 0 0 0 0 0 0 0 0 0 0 0 0 0 0 0 0 0 0 0 0 0
0 0 0 0 0 0 0 0 0 0 0 0 0 0 0 0 0 0 0 0 0 0 0 0 0 0 0 0 0 0 0 0 0 0 0 0 0 0 0 0 0 0 0 0
0 0 0 0 0 0 0 0 0 0 0 0 0 0 0 0 0 0 0 0 0 0 0 0 0 0 0 0 0 0 0 0 0 0 0 0 0 0 -0 0 -0 -0 -0 -0
0 0 0 0 0 0 0 0 0 0 0 0 0 0 0 0 0 0 0 0 0 0 0 0 0 0 0 0 0 0 0 0 0 0 0 0 -0 -0 0 0 0 0 -0 -0
0 0 0 0 0 0 0 0 0 0 0 0 0 0 0 0 0 0 0 0 0 0 0 0 0 0 0 0 0 0 0 0 0 0 0 0 0 0 -0 -0 0 -0 -0 -0
0 0 0 -0 0 0 0 0 0 0 0 0 0 0 0 0 0 0 0 0 0 0 0 0 0 0 0 0 0 0 0 0 0 0 0 0 -0 -0 0 0 -0 0 0 0
0 0 0 0 0 0 0 0 0 0 0 0 0 0 0 0 0 0 0 0 0 0 0 0 0 0 0 0 0 0 0 0 0 0 0 0 0 0 0 0 0 0 -0 0
0 0 0 0 0 0 0 0 0 0 0 0 0 0 0 0 0 0 0 0 0 0 0 0 0 0 0 0 0 0 0 0 0 0 0 0 0 0 0 0 0 0 0 0
0 0 0 0 0 0 0 0 0 0 0 0 0 0 0 0 0 0 0 0 0 0 0 0 0 0 0 0 0 0 0 0 0 0 0 0 0 0 0 0 0 0 0 0
0 0 0 0 0 0 0 0 0 0 0 0 0 0 0 0 0 1 1 1 1 1 1 1 0 0 0 0 0 0 0 0 0 0 0 0 0 0 0 0 0 0 0 0
0 0 0 0 0 0 0 0 0 0 0 0 0 0 0 0 0 1 1 0 1 0 0 0 0 0 0 0 0 0 0 0 0 0 0 0 0 0 0 0 0 0 0 0
0 0 0 0 0 0 0 0 0 0 0 0 0 0 0 0 0 0 0 0 0 0 0 0 0 0 0 0 0 0 0 0 0 0 0 0 0 0 0 0 0 0 0 0
0 0 0 0 0 0 0 0 0 0 0 0 0 0 0 0 0 0 0 0 0 0 0 0 0 0 0 0 0 0 0 0 0 0 0 0 0 0 0 0 0 0 0 0
0 0 0 0 0 0 0 0 0 0 0 0 0 0 0 0 0 0 0 0 0 0 0 0 0 0 0 0 0 0 0 0 0 0 0 0 0 0 0 0 0 0 0 0
0 0 0 0 0 0 0 0 0 0 0 0 0 0 0 0 0 0 0 0 0 0 0 0 0 0 0 0 0 0 0 0 0 0 0 0 0 0 0 0 0 0 0 0
0 0 0 0 0 0 0 0 0 0 0 0 0 0 0 0 0 0 0 0 0 0 0 0 0 0 0 0 0 0 0 0 0 0 0 0 0 0 0 0 0 0 0 0
0 0 0 0 0 0 0 0 0 0 0 0 0 0 0 0 0 0 0 0 0 0 0 0 0 0 0 0 0 0 0 0 0 0 0 0 0 0 0 0 0 0 0 0
Wind_Speed_500mb
28 13 14 4 8 8 14 8 15 9 13 20 18 18 21 16 13 14 12 8 12 15 15 18 19 20 21 23 26 27 29 30 34 36 34 54 47 50 51 54 47 45 46 45
29 7 16 8 3 9 11 7 18 9 17 10 10 14 17 14 14 7 4 13 14 15 17 19 22 19 20 23 24 26 29 35 38 39 44 43 47 52 53 56 46 41 44 42
24 19 31 12 11 8 6 8 11 13 17 12 14 12 11 11 9 9 12 13 15 18 17 21 20 19 22 22 25 27 33 37 40 44 50 48 51 53 57 46 43 41 38 39
21 18 21 5 5 7 9 7 2 3 5 12 12 13 5 9 13 14 14 16 18 20 21 19 18 18 19 23 26 30 35 41 45 47 53 53 57 51 51 50 44 40 39 34
12 7 16 21 7 4 12 12 9 4 6 12 12 23 13 4 10 13 16 17 17 19 19 18 16 17 18 23 28 34 38 42 45 49 54 53 49 49 49 44 43 36 35 29
10 20 15 13 11 5 9 16 13 2 10 11 16 17 19 10 12 13 17 18 19 20 19 18 18 19 20 25 29 35 40 43 43 47 56 39 42 46 41 42 35 29 27 23
8 11 9 14 6 2 15 6 1 8 9 10 11 14 18 12 12 13 16 18 19 20 19 19 20 20 24 27 31 35 38 40 41 55 37 31 38 37 39 41 35 31 25 23
4 12 3 5 9 8 9 3 8 9 11 10 12 14 12 11 9 12 15 17 18 20 21 21 21 22 25 28 30 33 35 36 42 42 30 31 33 34 41 41 35 34 26 24
5 11 12 4 7 3 5 12 12 10 14 11 17 16 12 11 11 13 16 17 19 20 22 23 22 23 26 28 29 31 32 32 29 33 24 27 28 29 32 36 37 28 30 34
4 10 6 2 0 7 12 17 14 13 12 15 18 15 14 15 15 19 20 22 23 24 25 26 25 27 28 29 29 28 28 28 27 28 22 23 24 24 26 27 29 32 32 38
6 7 7 7 4 11 14 12 14 14 13 14 14 16 18 21 20 24 25 27 26 27 29 30 28 29 28 27 27 25 24 25 26 25 24 24 21 23 21 22 28 23 30 37
9 10 7 9 6 7 10 11 14 17 17 20 21 24 26 29 30 30 32 32 31 29 29 30 29 28 26 25 24 23 23 21 23 23 24 22 23 23 27 26 30 30 32 37
3 2 7 5 7 11 14 17 19 21 26 28 29 31 32 34 36 36 38 39 36 33 32 29 28 27 24 22 23 25 24 23 23 24 21 23 21 21 22 27 25 26 27 31
2 4 10 7 13 16 21 24 26 30 32 31 33 37 40 34 38 39 43 42 38 35 33 30 28 28 26 25 24 26 28 28 26 24 22 23 23 24 21 20 19 20 21 21
13 14 19 23 24 29 30 37 39 40 39 40 33 39 32 36 40 44 46 43 36 36 35 32 30 30 27 27 27 28 28 29 27 27 28 27 27 21 22 22 20 19 15 20
12 18 23 27 27 33 39 42 40 37 35 35 37 28 35 34 37 38 35 30 34 40 38 37 36 34 31 32 33 32 33 37 38 36 34 32 30 27 24 22 23 22 19 17
19 24 30 30 29 32 33 34 35 31 34 36 34 33 31 32 33 31 30 32 37 43 45 41 40 35 35 35 34 37 37 37 39 40 40 37 35 33 30 28 25 24 25 24
15 20 22 24 27 30 32 34 34 33 33 32 33 34 36 38 41 40 39 35 35 37 39 42 38 38 37 39 42 44 43 42 41 43 42 42 42 38 42 38 33 29 27 29
25 25 27 31 33 36 37 38 38 40 41 42 45 47 47 48 48 49 46 42 38 42 42 34 37 37 47 49 46 41 44 47 47 46 45 44 45 49 43 44 45 41 35 30
27 32 37 42 44 43 49 45 45 43 50 52 55 57 59 59 54 46 45 45 41 38 39 37 44 52 53 51 47 44 43 46 50 51 51 50 48 48 47 46 44 44 44 41
34 42 47 50 55 58 61 58 52 54 62 60 57 61 64 57 54 49 42 41 38 36 40 73 79 55 52 44 49 44 44 45 47 52 47 50 52 52 49 47 45 42 47 54
42 46 49 51 49 46 45 44 40 44 48 48 49 54 55 53 53 50 39 42 47 68 80 65 63 61 58 60 57 48 56 59 53 50 50 48 44 40 36 33 38 39 37 51
37 39 40 41 43 46 42 39 41 42 49 48 50 51 49 54 54 61 77 79 85 73 67 67 58 59 64 69 70 63 64 67 64 58 52 47 42 42 39 36 34 41 51 48
35 34 38 39 32 34 42 45 45 47 52 51 50 48 50 67 63 55 60 62 62 65 68 68 71 74 75 71 66 66 62 63 58 54 50 45 35 31 29 27 27 34 37 39
27 30 36 46 45 44 48 55 62 61 61 62 66 67 70 73 76 80 82 79 75 82 88 90 90 74 66 68 65 63 61 66 61 59 55 49 40 29 25 22 27 27 30 30
39 40 42 44 43 51 55 58 58 56 61 63 78 84 84 82 76 75 80 84 83 76 85 69 80 78 87 69 60 64 61 57 58 63 59 51 36 27 28 32 30 32 31 32
42 50 55 49 45 49 53 59 61 65 67 69 73 82 80 80 83 80 75 78 81 84 84 84 79 81 81 68 66 73 76 74 73 62 55 43 36 30 30 21 20 22 30 28
Wind_Direction_500mb
287 293 283 292 316 308 299 349 305 24 16 35 23 9 6 359 360 20 345 312 352 0 341 333 340 325 322 321 320 322 326 330 330 327 325 323 319 316 316 304 296 298 297 294
270 299 260 314 90 244 240 45 303 318 101 39 39 348 360 6 352 1 352 347 342 337 332 331 327 318 319 324 328 330 332 332 329 325 324 320 317 317 315 310 298 298 297 294
275 164 228 250 107 270 325 158 324 330 25 357 350 357 349 350 4 344 347 330 328 327 333 324 321 324 325 332 332 333 330 328 327 331 326 323 323 323 319 315 313 304 300 298
268 226 279 88 71 20 319 28 158 165 341 360 338 318 286 339 352 335 328 321 323 321 320 318 312 319 324 330 332 329 328 329 329 331 330 327 329 330 326 326 321 319 316 309
248 296 193 190 140 275 319 192 188 321 333 336 317 297 214 238 311 319 317 316 313 310 313 309 304 310 315 323 326 327 328 329 332 332 328 338 336 332 333 332 330 326 328 316
266 261 315 99 115 328 307 260 122 344 318 331 331 293 93 350 332 313 315 310 300 301 305 302 302 303 309 319 323 327 328 330 330 327 335 335 338 341 338 335 331 338 342 359
223 216 91 78 101 1 259 46 131 312 320 309 300 339 319 316 321 324 319 308 292 295 297 300 303 301 302 312 320 324 326 328 324 333 340 338 341 343 339 344 346 349 353 353
184 263 292 94 198 295 58 205 297 295 294 298 300 291 276 293 305 320 322 317 306 298 297 298 299 301 301 305 311 320 323 328 327 338 334 337 341 342 345 341 344 353 356 360
356 35 117 71 27 66 298 290 295 294 303 288 289 279 274 273 293 307 307 312 315 310 302 298 295 293 295 300 309 315 319 325 329 334 325 335 340 346 344 343 344 353 352 349
297 118 147 133 304 300 290 285 287 284 286 287 285 273 261 269 283 295 301 312 312 307 305 302 299 294 292 297 304 309 312 319 321 325 318 327 335 340 347 345 345 346 347 351
230 154 200 180 311 317 300 277 276 273 280 286 274 272 272 277 285 292 296 298 307 309 304 298 297 295 292 291 298 299 305 314 320 321 318 319 322 320 331 335 337 341 345 356
58 95 320 81 327 301 300 287 277 279 276 265 264 271 276 280 285 289 293 294 293 297 300 298 291 290 290 290 290 288 294 305 317 325 323 318 318 321 319 332 345 354 357 1
338 92 22 328 297 300 305 301 287 280 281 279 279 280 284 285 284 286 288 286 283 286 292 291 287 284 289 288 283 279 278 286 304 314 319 318 314 311 314 318 328 335 339 355
201 279 270 247 299 323 302 293 281 273 271 275 281 282 280 278 282 282 289 285 281 278 283 283 279 278 278 282 283 277 271 277 289 295 303 312 316 306 300 303 308 310 315 327
254 257 276 297 296 290 297 296 285 285 284 280 278 280 291 297 295 297 292 285 272 269 278 277 279 278 274 274 276 277 272 272 277 281 285 287 298 306 306 299 294 292 286 288
332 302 292 290 293 314 314 307 301 307 308 298 293 290 297 297 299 295 290 275 268 266 274 272 276 281 271 271 269 273 272 273 272 272 277 279 282 285 293 296 291 281 271 264
330 335 331 322 315 311 304 308 306 310 310 305 303 300 294 290 293 295 292 283 276 272 271 269 270 274 272 268 268 270 268 269 269 268 270 270 271 274 278 282 285 281 272 260
319 317 316 312 312 315 316 314 313 312 306 304 302 293 287 288 289 292 288 286 281 276 270 268 266 268 272 270 271 270 266 267 269 267 266 262 262 264 268 266 269 272 271 265
325 312 306 305 310 311 310 308 304 301 298 295 292 290 288 285 285 284 279 271 279 277 276 267 265 272 275 283 277 270 265 265 265 266 265 263 262 258 263 259 259 265 265 263
322 323 332 326 319 316 308 307 310 318 314 310 303 296 293 291 283 281 272 274 271 277 272 271 277 293 289 283 275 268 266 260 257 262 259 266 263 256 256 258 252 252 257 261
334 336 328 328 330 326 328 330 321 312 309 303 301 299 297 293 287 280 268 259 263 272 291 305 289 287 277 271 269 268 267 263 259 262 263 262 263 257 258 258 261 254 253 243
334 332 329 325 323 324 326 327 331 332 325 323 324 322 319 313 308 299 283 295 289 295 296 290 283 270 267 268 259 269 275 274 264 262 260 262 262 260 255 256 248 254 262 256
345 344 341 339 338 334 339 346 343 339 338 337 334 327 324 319 310 306 303 304 311 294 286 286 279 275 273 274 272 268 272 269 263 257 255 255 249 241 247 254 254 252 254 260
347 347 357 353 346 345 354 345 347 338 334 331 325 325 326 327 319 316 319 316 313 312 312 303 290 278 278 273 269 267 267 261 255 254 251 244 241 246 248 247 253 257 259 266
15 12 6 1 357 346 343 341 337 334 332 330 332 334 332 329 324 322 318 316 310 307 298 294 297 288 293 274 263 264 265 266 257 247 243 240 235 237 244 240 259 258 261 265
3 358 350 348 342 338 339 344 340 342 342 338 333 334 331 325 321 321 317 318 314 300 311 300 297 288 282 269 263 256 271 265 262 260 245 238 234 224 240 257 254 256 252 258
345 348 352 353 353 349 343 340 335 333 333 332 332 333 329 329 330 328 326 323 324 325 318 315 318 302 300 293 290 287 278 285 270 270 262 232 220 234 249 227 232 249 259 252
Wind_Speed_850mb
28 13 14 4 8 8 14 8 15 9 13 20 18 18 21 16 13 14 12 8 12 15 15 18 19 20 21 23 26 27 29 30 34 36 34 54 47 50 51 54 47 45 46 45
29 7 16 8 3 9 11 7 18 9 17 10 10 14 17 14 14 7 4 13 14 15 17 19 22 19 20 23 24 26 29 35 38 39 44 43 47 52 53 56 46 41 44 42
24 19 31 12 11 8 6 8 11 13 17 12 14 12 11 11 9 9 12 13 15 18 17 21 20 19 22 22 25 27 33 37 40 44 50 48 51 53 57 46 43 41 38 39
21 18 21 5 5 7 9 7 2 3 5 12 12 13 5 9 13 14 14 16 18 20 21 19 18 18 19 23 26 30 35 41 45 47 53 53 57 51 51 50 44 40 39 34
12 7 16 21 7 4 12 12 9 4 6 12 12 23 13 4 10 13 16 17 17 19 19 18 16 17 18 23 28 34 38 42 45 49 54 53 49 49 49 44 43 36 35 29
10 20 15 13 11 5 9 16 13 2 10 11 16 17 19 10 12 13 17 18 19 20 19 18 18 19 20 25 29 35 40 43 43 47 56 39 42 46 41 42 35 29 27 23
8 11 9 14 6 2 15 6 1 8 9 10 11 14 18 12 12 13 16 18 19 20 19 19 20 20 24 27 31 35 38 40 41 55 37 31 38 37 39 41 35 31 25 23
4 12 3 5 9 8 9 3 8 9 11 10 12 14 12 11 9 12 15 17 18 20 21 21 21 22 25 28 30 33 35 36 42 42 30 31 33 34 41 41 35 34 26 24
5 11 12 4 7 3 5 12 12 10 14 11 17 16 12 11 11 13 16 17 19 20 22 23 22 23 26 28 29 31 32 32 29 33 24 27 28 29 32 36 37 28 30 34
4 10 6 2 0 7 12 17 14 13 12 15 18 15 14 15 15 19 20 22 23 24 25 26 25 27 28 29 29 28 28 28 27 28 22 23 24 24 26 27 29 32 32 38
6 7 7 7 4 11 14 12 14 14 13 14 14 16 18 21 20 24 25 27 26 27 29 30 28 29 28 27 27 25 24 25 26 25 24 24 21 23 21 22 28 23 30 37
9 10 7 9 6 7 10 11 14 17 17 20 21 24 26 29 30 30 32 32 31 29 29 30 29 28 26 25 24 23 23 21 23 23 24 22 23 23 27 26 30 30 32 37
3 2 7 5 7 11 14 17 19 21 26 28 29 31 32 34 36 36 38 39 36 33 32 29 28 27 24 22 23 25 24 23 23 24 21 23 21 21 22 27 25 26 27 31
2 4 10 7 13 16 21 24 26 30 32 31 33 37 40 34 38 39 43 42 38 35 33 30 28 28 26 25 24 26 28 28 26 24 22 23 23 24 21 20 19 20 21 21
13 14 19 23 24 29 30 37 39 40 39 40 33 39 32 36 40 44 46 43 36 36 35 32 30 30 27 27 27 28 28 29 27 27 28 27 27 21 22 22 20 19 15 20
12 18 23 27 27 33 39 42 40 37 35 35 37 28 35 34 37 38 35 30 34 40 38 37 36 34 31 32 33 32 33 37 38 36 34 32 30 27 24 22 23 22 19 17
19 24 30 30 29 32 33 34 35 31 34 36 34 33 31 32 33 31 30 32 37 43 45 41 40 35 35 35 34 37 37 37 39 40 40 37 35 33 30 28 25 24 25 24
15 20 22 24 27 30 32 34 34 33 33 32 33 34 36 38 41 40 39 35 35 37 39 42 38 38 37 39 42 44 43 42 41 43 42 42 42 38 42 38 33 29 27 29
25 25 27 31 33 36 37 38 38 40 41 42 45 47 47 48 48 49 46 42 38 42 42 34 37 37 47 49 46 41 44 47 47 46 45 44 45 49 43 44 45 41 35 30
27 32 37 42 44 43 49 45 45 43 50 52 55 57 59 59 54 46 45 45 41 38 39 37 44 52 53 51 47 44 43 46 50 51 51 50 48 48 47 46 44 44 44 41
34 42 47 50 55 58 61 58 52 54 62 60 57 61 64 57 54 49 42 41 38 36 40 73 79 55 52 44 49 44 44 45 47 52 47 50 52 52 49 47 45 42 47 54
42 46 49 51 49 46 45 44 40 44 48 48 49 54 55 53 53 50 39 42 47 68 80 65 63 61 58 60 57 48 56 59 53 50 50 48 44 40 36 33 38 39 37 51
37 39 40 41 43 46 42 39 41 42 49 48 50 51 49 54 54 61 77 79 85 73 67 67 58 59 64 69 70 63 64 67 64 58 52 47 42 42 39 36 34 41 51 48
35 34 38 39 32 34 42 45 45 47 52 51 50 48 50 67 63 55 60 62 62 65 68 68 71 74 75 71 66 66 62 63 58 54 50 45 35 31 29 27 27 34 37 39
27 30 36 46 45 44 48 55 62 61 61 62 66 67 70 73 76 80 82 79 75 82 88 90 90 74 66 68 65 63 61 66 61 59 55 49 40 29 25 22 27 27 30 30
39 40 42 44 43 51 55 58 58 56 61 63 78 84 84 82 76 75 80 84 83 76 85 69 80 78 87 69 60 64 61 57 58 63 59 51 36 27 28 32 30 32 31 32
42 50 55 49 45 49 53 59 61 65 67 69 73 82 80 80 83 80 75 78 81 84 84 84 79 81 81 68 66 73 76 74 73 62 55 43 36 30 30 21 20 22 30 28
Wind_Direction_850mb
287 293 283 292 316 308 299 349 305 24 16 35 23 9 6 359 360 20 345 312 352 0 341 333 340 325 322 321 320 322 326 330 330 327 325 323 319 316 316 304 296 298 297 294
270 299 260 314 90 244 240 45 303 318 101 39 39 348 360 6 352 1 352 347 342 337 332 331 327 318 319 324 328 330 332 332 329 325 324 320 317 317 315 310 298 298 297 294
275 164 228 250 107 270 325 158 324 330 25 357 350 357 349 350 4 344 347 330 328 327 333 324 321 324 325 332 332 333 330 328 327 331 326 323 323 323 319 315 313 304 300 298
268 226 279 88 71 20 319 28 158 165 341 360 338 318 286 339 352 335 328 321 323 321 320 318 312 319 324 330 332 329 328 329 329 331 330 327 329 330 326 326 321 319 316 309
248 296 193 190 140 275 319 192 188 321 333 336 317 297 214 238 311 319 317 316 313 310 313 309 304 310 315 323 326 327 328 329 332 332 328 338 336 332 333 332 330 326 328 316
266 261 315 99 115 328 307 260 122 344 318 331 331 293 93 350 332 313 315 310 300 301 305 302 302 303 309 319 323 327 328 330 330 327 335 335 338 341 338 335 331 338 342 359
223 216 91 78 101 1 259 46 131 312 320 309 300 339 319 316 321 324 319 308 292 295 297 300 303 301 302 312 320 324 326 328 324 333 340 338 341 343 339 344 346 349 353 353
184 263 292 94 198 295 58 205 297 295 294 298 300 291 276 293 305 320 322 317 306 298 297 298 299 301 301 305 311 320 323 328 327 338 334 337 341 342 345 341 344 353 356 360
356 35 117 71 27 66 298 290 295 294 303 288 289 279 274 273 293 307 307 312 315 310 302 298 295 293 295 300 309 315 319 325 329 334 325 335 340 346 344 343 344 353 352 349
297 118 147 133 304 300 290 285 287 284 286 287 285 273 261 269 283 295 301 312 312 307 305 302 299 294 292 297 304 309 312 319 321 325 318 327 335 340 347 345 345 346 347 351
230 154 200 180 311 317 300 277 276 273 280 286 274 272 272 277 285 292 296 298 307 309 304 298 297 295 292 291 298 299 305 314 320 321 318 319 322 320 331 335 337 341 345 356
58 95 320 81 327 301 300 287 277 279 276 265 264 271 276 280 285 289 293 294 293 297 300 298 291 290 290 290 290 288 294 305 317 325 323 318 318 321 319 332 345 354 357 1
338 92 22 328 297 300 305 301 287 280 281 279 279 280 284 285 284 286 288 286 283 286 292 291 287 284 289 288 283 279 278 286 304 314 319 318 314 311 314 318 328 335 339 355
201 279 270 247 299 323 302 293 281 273 271 275 281 282 280 278 282 282 289 285 281 278 283 283 279 278 278 282 283 277 271 277 289 295 303 312 316 306 300 303 308 310 315 327
254 257 276 297 296 290 297 296 285 285 284 280 278 280 291 297 295 297 292 285 272 269 278 277 279 278 274 274 276 277 272 272 277 281 285 287 298 306 306 299 294 292 286 288
332 302 292 290 293 314 314 307 301 307 308 298 293 290 297 297 299 295 290 275 268 266 274 272 276 281 271 271 269 273 272 273 272 272 277 279 282 285 293 296 291 281 271 264
330 335 331 322 315 311 304 308 306 310 310 305 303 300 294 290 293 295 292 283 276 272 271 269 270 274 272 268 268 270 268 269 269 268 270 270 271 274 278 282 285 281 272 260
319 317 316 312 312 315 316 314 313 312 306 304 302 293 287 288 289 292 288 286 281 276 270 268 266 268 272 270 271 270 266 267 269 267 266 262 262 264 268 266 269 272 271 265
325 312 306 305 310 311 310 308 304 301 298 295 292 290 288 285 285 284 279 271 279 277 276 267 265 272 275 283 277 270 265 265 265 266 265 263 262 258 263 259 259 265 265 263
322 323 332 326 319 316 308 307 310 318 314 310 303 296 293 291 283 281 272 274 271 277 272 271 277 293 289 283 275 268 266 260 257 262 259 266 263 256 256 258 252 252 257 261
334 336 328 328 330 326 328 330 321 312 309 303 301 299 297 293 287 280 268 259 263 272 291 305 289 287 277 271 269 268 267 263 259 262 263 262 263 257 258 258 261 254 253 243
334 332 329 325 323 324 326 327 331 332 325 323 324 322 319 313 308 299 283 295 289 295 296 290 283 270 267 268 259 269 275 274 264 262 260 262 262 260 255 256 248 254 262 256
345 344 341 339 338 334 339 346 343 339 338 337 334 327 324 319 310 306 303 304 311 294 286 286 279 275 273 274 272 268 272 269 263 257 255 255 249 241 247 254 254 252 254 260
347 347 357 353 346 345 354 345 347 338 334 331 325 325 326 327 319 316 319 316 313 312 312 303 290 278 278 273 269 267 267 261 255 254 251 244 241 246 248 247 253 257 259 266
15 12 6 1 357 346 343 341 337 334 332 330 332 334 332 329 324 322 318 316 310 307 298 294 297 288 293 274 263 264 265 266 257 247 243 240 235 237 244 240 259 258 261 265
3 358 350 348 342 338 339 344 340 342 342 338 333 334 331 325 321 321 317 318 314 300 311 300 297 288 282 269 263 256 271 265 262 260 245 238 234 224 240 257 254 256 252 258
345 348 352 353 353 349 343 340 335 333 333 332 332 333 329 329 330 328 326 323 324 325 318 315 318 302 300 293 290 287 278 285 270 270 262 232 220 234 249 227 232 249 259 252